SL-14 DEB, 45282

Orbit data source: Space-Track

SL-14 DEB, 45282 is space debris in LEO originally from a launch on Thu, 15 Aug 1991 UTC launched from the Plesetsk Missile And Space Complex (PKMTR). Debris objects in space refer to the collection of defunct objects orbiting the Earth. Examples of debris include non-operational satellites, rocket bodies, and fragments generated from explosions, collisions, or faulty payload assembly.

Loading next visibility...
Identifier
45282, 1991-056U
Orbit
LEO
Country
Flag of CISCIS
Related business
Manufacturer
Unknown
Mission
Spacecraft
Bus & Motor
Unknown
Mass
Unknown
Launch date (UTC)
1991-08-15 (35 years ago)
Launch vehicle
Unknown
Launch site
Plesetsk Missile And Space Complex (PKMTR)
Object type
Payload
Rocket body
Debris
Shape & HBR
Unknown shape, 0.2 m
Radar Cross Section
Medium (>0.1 m² and <1 m²)

Expand to show TLE details & history
Last TLE update: 9 hours ago

TLE from 9 hours ago
0 SL-14 DEB
1 45282U 91056U   26174.96886145  .00000241  00000-0  59439-3 0  9999
2 45282  82.6209 153.3817 0019340 147.4088 212.8233 13.16892601305272
Epoch: 2026-06-23T23:15Z
TLE epoch observation values (Epoch: 2026-06-23T23:15:09.629Z)
Latitude
0.00004°
Longitude
-107.54123°
Altitude
1,211.743 km
Speed
7.242 km/s
True Right ascension
10h 13m 31s
True Declination
0° 00' 00"
Sunlit
Object was in daylight at epoch
Visualization orbit readout
Latitude
Unknown
Longitude
Unknown
Altitude
Unknown
Speed
Unknown
Apparent Right ascension
Unknown
Apparent Declination
Unknown
Sunlit
N/A
Visualization observer readout
Local Sidereal Time
18:57:49
Azimuth
Unknown
Elevation
Unknown
Doppler factor
Unknown
Orbital elements
Apogee altitude
1,208.499 km
Perigee altitude
1,179.21 km
Semi-major axis
7,571.992 km
Eccentricity
0.00193
Inclination
82.6209°
RAAN
153.3817°
Arg. of periapsis
147.4088°
True anomaly
212.70341°
Mean anomaly
212.8233°
Eccentric anomaly
212.76333°
Mean motion
3.29403 °/min
Orbital period
109.29 mins
BSTAR
0.00059439
Loading maneuver chart data...
Computing Atmospheric mass density...
Loading historical data...
Loading historical data...
Loading historical data...
Loading historical data...
Loading historical data...
Loading historical data...
Loading historical data...

Documentation

Showing up to 5 results
|